Content
SEND FEEDBACK

Daily
Averages
Monthly
Summary
French Polynesia

PAPEETE, FRENCH POLYNESIA


Home > Oceania > French Polynesia
Elevation: 7 feet     Latitude: 17 33S     Longitude: 149 36W

WEATHER
 
SELECT A DAY
Number of Records: 208,245;   Date Range: 6/30/96 - 7/28/14
 
SHARE

PRINT THIS DATA

[ ← Previous Day ]
WEATHER ALMANAC - DECEMBER 15, 2013
[ Next Day → ]
[ °C ]   °F
Weather ElementAverageHighLow
Temperature82.2 °F87.8 °F (12:00 pm)76 °F (5:00 am)
Dewpoint70.4 °F73.4 °F (8:30 am)66 °F (5:00 am)
Humidity66.3 %74 % (3:30 am)53 % (5:00 pm)
Barometer29.90 in29.96 in (8:00 am)29.86 in (1:30 am)
Wind Speed9 mph17.3 mph (10:30 am)
Weather ElementAverage
Visibility7.8 mi
Wind DirectionENE (61.3 °)

Weather ElementTotal
Precipitation---
Cooling Degree Days16.9 (Base 65)
Growing Degree Days31.9 (Base 50)
Averaged from 55 records on December 15, 2013
WEATHER CONDITIONS BREAKOUT
WIND DIRECTION BREAKOUT
WEATHER BY HOUR - DECEMBER 15, 2013
[ °C ]   °F
Local TimeTemperatureDewpointHumidityBarometerVisibilityWind DirectionWind SpeedGust SpeedPrecipitationEventsConditions
12:30 AM80.6 °F66.2 °F61 %29.89 in6.2 miEast (80°)4.6 mphScattered Clouds
1:00 AM80.6 °F68.0 °F65 %29.89 in6.2 miEast (80°)4.6 mphScattered Clouds
1:30 AM80.6 °F68.0 °F65 %29.86 in6.2 miENE (70°)6.9 mphMostly Cloudy
2:00 AM80.0 °F68.0 °F58 %29.88 in12.0 miEast (90°)8.9 mphPartly Cloudy
2:00 AM78.8 °F68.0 °F69 %29.86 in6.2 miEast (90°)4.6 mphScattered Clouds
2:30 AM78.8 °F68.0 °F69 %29.86 in6.2 miVariable2.3 mphPartly Cloudy
3:00 AM78.8 °F68.0 °F69 %29.86 in6.2 miVariable3.5 mphPartly Cloudy
3:30 AM77.0 °F68.0 °F74 %29.86 in6.2 miCalm
4:00 AM77.0 °F68.0 °F74 %29.86 in6.2 miVariable2.3 mphMostly Cloudy
4:30 AM77.0 °F66.2 °F69 %29.86 in6.2 miVariable2.3 mphScattered Clouds
5:00 AM76.0 °F66.0 °F65 %29.89 in37.0 miESE (110°)3.5 mphClear
5:00 AM77.0 °F66.2 °F69 %29.89 in6.2 miVariable3.5 mph
5:30 AM77.0 °F66.2 °F69 %29.89 in6.2 miEast (80°)4.6 mph
6:00 AM78.8 °F68.0 °F69 %29.92 in6.2 miESE (110°)4.6 mphPartly Cloudy
6:30 AM80.6 °F68.0 °F65 %29.92 in6.2 miVariable2.3 mphPartly Cloudy
7:00 AM84.2 °F69.8 °F62 %29.95 in6.2 miCalmPartly Cloudy
7:30 AM84.2 °F71.6 °F66 %29.95 in6.2 miNE (50°)8.1 mphPartly Cloudy
8:00 AM84.0 °F72.0 °F60 %29.96 in16.0 miNE (50°)11.5 mphPartly Cloudy
8:00 AM84.2 °F71.6 °F66 %29.95 in6.2 miNE (50°)11.5 mphPartly Cloudy
8:30 AM84.2 °F73.4 °F70 %29.95 in6.2 miNE (50°)11.5 mphPartly Cloudy
9:00 AM86.0 °F71.6 °F62 %29.95 in6.2 miNE (50°)12.7 mphPartly Cloudy
9:30 AM86.0 °F73.4 °F66 %29.95 in6.2 miNE (50°)11.5 mphPartly Cloudy
10:00 AM86.0 °F73.4 °F66 %29.92 in6.2 miNE (40°)16.1 mphPartly Cloudy
10:30 AM86.0 °F73.4 °F66 %29.92 in6.2 miNE (40°)17.3 mphPartly Cloudy
11:00 AM86.0 °F73.0 °F57 %29.92 in16.0 miNE (50°)16.1 mphScattered Clouds
11:00 AM86.0 °F73.4 °F66 %29.92 in6.2 miNE (50°)16.1 mphPartly Cloudy
11:30 AM86.0 °F73.4 °F66 %29.92 in6.2 miNE (40°)17.3 mphPartly Cloudy
12:00 PM87.8 °F73.4 °F62 %29.89 in6.2 miNE (40°)16.1 mphPartly Cloudy
12:30 PM86.0 °F73.4 °F66 %29.89 in6.2 miNE (50°)16.1 mphPartly Cloudy
1:00 PM86.0 °F73.4 °F66 %29.89 in6.2 miNE (40°)15.0 mphScattered Clouds
1:30 PM86.0 °F73.4 °F66 %29.89 in6.2 miNE (40°)15.0 mphScattered Clouds
2:00 PM86.0 °F73.0 °F57 %29.88 in16.0 miNE (40°)15.0 mphPartly Cloudy
2:00 PM86.0 °F73.4 °F66 %29.86 in6.2 miNE (40°)15.0 mphScattered Clouds
2:30 PM84.2 °F73.4 °F70 %29.86 in6.2 miNE (50°)15.0 mphPartly Cloudy
3:00 PM84.2 °F73.4 °F70 %29.86 in6.2 miNE (50°)13.8 mphScattered Clouds
3:30 PM84.2 °F73.4 °F70 %29.86 in6.2 miNE (50°)15.0 mphScattered Clouds
4:00 PM84.2 °F71.6 °F66 %29.86 in6.2 miNE (50°)15.0 mphScattered Clouds
4:30 PM84.2 °F71.6 °F66 %29.86 in6.2 miNE (50°)15.0 mphPartly Cloudy
5:00 PM84.0 °F69.0 °F53 %29.87 in16.0 miNE (50°)13.8 mphScattered Clouds
5:00 PM84.2 °F69.8 °F62 %29.86 in6.2 miNE (50°)13.8 mphPartly Cloudy
5:30 PM84.2 °F69.8 °F62 %29.86 in6.2 miENE (60°)12.7 mphPartly Cloudy
6:00 PM82.4 °F69.8 °F66 %29.89 in6.2 miENE (60°)9.2 mphPartly Cloudy
6:30 PM82.4 °F69.8 °F66 %29.89 in6.2 miVariable5.8 mphPartly Cloudy
7:00 PM82.4 °F69.8 °F66 %29.92 in6.2 miSSE (160°)4.6 mphPartly Cloudy
7:36 PM82.4 °F69.8 °F66 %29.92 in6.2 miSouth (180°)8.1 mphPartly Cloudy
8:00 PM82.0 °F70.0 °F59 %29.94 in12.0 miSouth (170°)13.4 mphScattered Clouds
8:00 PM82.4 °F69.8 °F66 %29.92 in6.2 miSouth (170°)6.9 mphPartly Cloudy
8:30 PM82.4 °F69.8 °F66 %29.95 in6.2 miSSE (160°)5.8 mphPartly Cloudy
9:00 PM80.6 °F69.8 °F70 %29.95 in6.2 miSE (130°)3.5 mphPartly Cloudy
9:30 PM80.6 °F69.8 °F70 %29.95 in6.2 miVariable3.5 mphPartly Cloudy
10:00 PM78.8 °F69.8 °F74 %29.95 in6.2 miENE (70°)3.5 mphPartly Cloudy
10:30 PM78.8 °F69.8 °F74 %29.95 in6.2 miEast (80°)3.5 mphPartly Cloudy
11:00 PM78.0 °F70.0 °F71 %29.96 in12.0 miEast (100°)3.5 mphScattered Clouds
11:00 PM78.8 °F69.8 °F74 %29.95 in6.2 miEast (100°)3.5 mphPartly Cloudy
11:30 PM78.8 °F69.8 °F74 %29.95 in6.2 miEast (100°)3.5 mphPartly Cloudy
Hourly data recorded from NTAA, located miles away from Papeete, French Polynesia







STORIES FROM OUR PARTNERS